Home   Weather   Colorado Springs   Past weeks

Flag for USA Past Weather in Colorado Springs, Colorado, USA — Yesterday and Last 2 Weeks

Now
48 °F

Passing clouds.


Feels Like: 42 °F
Forecast: 41 / 63 °F
Wind: 15 mph from North

Location: City Of Colorado Springs Municipal Airport

Current Time: Sep 25, 2016 at 1:21:05 AM

Latest Report: Sep 25, 2016 at 12:54 AM


Visibility: 10 mi

Pressure: 30.20 "Hg (24.19 "Hg at 1831m altitude)

Humidity: 56%

Dew Point: 33 °F

Location of Colorado SpringsLocation

Past Weather in Colorado Springs — Graph

°F

Colorado Springs Temperature Yesterday

Maximum temperature yesterday: 70 °F (at 4:54 PM)
Minimum temperature yesterday: 43 °F (at 5:54 AM)
Average temperature yesterday: 56 °F

High & Low Weather Summary for the Past Weeks

 TemperatureHumidityPressure
High88 °F (Sep 20, 2:54 PM)93% (Sep 14, 4:54 AM)30.35 "Hg (Sep 14, 4:54 AM)
Low43 °F (Sep 24, 5:54 AM)7% (Sep 23, 2:54 PM)29.51 "Hg (Sep 23, 4:54 PM)
Average65 °F38%29.94 "Hg
* Reported Sep 9 11:54 PM — Sep 24 11:54 PM, Colorado Springs, Weather by CustomWeather, © 2016

Note: Actual official high and low records may vary slightly from our data, if they occured in-between our weather recording intervals... More about our weather records

Advertising

Colorado Springs Weather History for the Previous 24 Hours

Scroll right to see more
 ConditionsComfort  
Time TempWeatherWind HumidityBarometerVisibility
11:54 PM
Sat, Sep 24
50 °FPassing clouds.16 mph46%30.17 "Hg10 mi
10:54 PM52 °FClear.10 mph38%30.15 "Hg10 mi
9:54 PM54 °FPassing clouds.13 mph31%30.13 "Hg10 mi
8:54 PM57 °FPassing clouds.21 mph27%30.08 "Hg10 mi
7:54 PM59 °FPassing clouds.16 mph24%30.04 "Hg10 mi
6:54 PM62 °FPassing clouds.13 mph22%30.02 "Hg10 mi
5:54 PM65 °FScattered clouds.22 mph21%29.97 "Hg10 mi
4:54 PM70 °FPartly sunny.16 mph18%29.91 "Hg10 mi
3:54 PM68 °FPartly sunny.3 mph17%29.89 "Hg10 mi
2:54 PM69 °FScattered clouds.8 mph17%29.86 "Hg10 mi
1:54 PM68 °FPassing clouds.5 mph17%29.85 "Hg10 mi
12:54 PM66 °FScattered clouds.6 mph18%29.89 "Hg10 mi
11:54 AM62 °FPassing clouds.3 mph21%29.91 "Hg10 mi
10:54 AM59 °FScattered clouds.5 mph25%29.93 "Hg10 mi
9:54 AM54 °FPassing clouds.5 mph27%29.93 "Hg10 mi
8:54 AM50 °FPassing clouds.5 mph30%29.93 "Hg10 mi
7:54 AM49 °FScattered clouds.No wind36%29.88 "Hg10 mi
6:54 AM44 °FScattered clouds.5 mph41%29.88 "Hg10 mi
5:54 AM43 °FPassing clouds.7 mph42%29.84 "Hg10 mi
4:54 AM44 °FPassing clouds.5 mph35%29.82 "Hg10 mi
3:54 AM46 °FPassing clouds.12 mph34%29.80 "Hg10 mi
2:54 AM48 °FClear.7 mph33%29.78 "Hg10 mi
1:54 AM52 °FClear.8 mph26%29.78 "Hg10 mi
Weather by CustomWeather, © 2016

See weather overviewHow to use our weather pages